Back to catalog

COSMOS 588

AliveMilitaryLEO
NORAD 6845·PAYLOAD·🇷🇺 Russia

Launched Oct 2, 1973 from Plesetsk Cosmodrome

Loading…

Next Passes (next 24 hours)

TLE

FreshSource: Space-Track

Epoch: Sep 14, 2026, 09:17 UTC

1 06845U 73069A   26257.38713969 -.00000026  00000-0 -68490-4 0  9997
2 06845  73.9982 233.0236 0028500  18.9682 148.8351 12.48637768413539

Track COSMOS 588 in real time with AllMySat

Download on the App Store